Weather Roundup
Issued by NWS

Home | Current Version | Previous Version | Text Only | Print | Product List | Glossary On
Versions: 1 2 3 4 5 6 7 8 9 10 11 12 13 14 15 16 17 18 19 20 21 22 23 24 25 26 27 28 29 30 31 32 33 34 35 36 37 38 39 40 41 42 43 44 45 46 47 48 49 50
000
NZUS93 KARX 251110
HRRWXR

CURRENT HOURLY OBSERVATIONS ACROSS
MUCH OF THE UPPER MISSISSIPPI VALLEY
NATIONAL WEATHER SERVICE LA CROSSE WI
600 AM CDT SUN JUN 25 2017


...SOUTHEAST MINNESOTA...


CITY           SKY/WX    TMP DP  RH WIND       PRES   REMARKS
ROCHESTER      CLOUDY    50  48  93 W9        30.11R
ROCHESTER/MAYO CLOUDY    53  49  87 W8        30.11R
WINONA         CLOUDY    54  46  76 NW6       30.09R
AUSTIN         CLEAR     52  45  76 W10       30.12R
ALBERT LEA     CLOUDY    52  46  82 NW8       30.14R
DODGE CENTER   MOCLDY    50  46  87 W8        30.12R
PRESTON        MOCLDY    49  46  88 W10       30.12R
OWATONNA       CLOUDY    54  46  76 W13       30.13R
FARIBAULT      CLOUDY    54  48  82 NW8       30.12R
$$

...ELSEWHERE IN MINNESOTA...


CITY           SKY/WX    TMP DP  RH WIND       PRES   REMARKS
MINNEAPOLIS    CLOUDY    55  48  77 NW17      30.10R
INTNL FALLS    LGT RAIN  51  49  92 N13       30.07R
DULUTH         CLOUDY    52  51  97 NW5       30.01R
RED WING       CLOUDY    55  48  76 W5        30.08R
REDWOOD FALLS  PTCLDY    51  42  71 NW12G23   30.17R
MANKATO        CLOUDY    52  46  80 W17       30.15R
WORTHINGTON    CLEAR     47  44  90 W9        30.24R
FAIRMONT       CLOUDY    53  45  74 NW16G22   30.18R
$$

...SOUTHWEST WISCONSIN...


CITY           SKY/WX    TMP DP  RH WIND       PRES   REMARKS
LA CROSSE      CLEAR     58  49  72 W8        30.08R
PRAIRIE DU CHI CLEAR     51  45  79 NW3       30.11R
BOSCOBEL       CLEAR     51  48  89 SW6       30.10R
LONE ROCK      CLEAR     52  48  86 W7        30.08R
PLATTEVILLE    CLEAR     49  49  99 W5        30.12R
FORT MC COY    CLEAR     42  42  99 CALM      30.07R
CAMP DOUGLAS   CLEAR     47  46  97 W8        30.04S
MAUSTON-NEW LI SUNNY     51  48  88 W6        30.04R FOG
VIROQUA        FAIR      48  48  99 W3        30.08R
WIS DELLS      CLEAR     49  46  92 CALM      30.06R
$$

...ELSEWHERE IN WISCONSIN...


CITY           SKY/WX    TMP DP  RH WIND       PRES   REMARKS
MILWAUKEE      CLEAR     54  49  83 W9        30.03R
MADISON        PTCLDY    51  48  89 VRB6      30.06R
GREEN BAY      CLOUDY    53  51  93 W10       29.96R
EAU CLAIRE     MOCLDY    50  48  93 W3        30.05R
BLACK RVR FLS  FAIR      44  44 100 CALM      30.05R
MEDFORD        CLEAR     47  46  97 W7        30.01S
WAUSAU         CLEAR     49  48  97 W8        29.99R
WIS RAPIDS     CLEAR     49  46  90 W8        30.04R
MARSHFIELD     PTCLDY    49  46  90 W12       30.02R
RICE LAKE      CLOUDY    51  49  92 W6        30.06R
$$

...NORTHEAST IOWA...


CITY           SKY/WX    TMP DP  RH WIND       PRES   REMARKS
WATERLOO       PTCLDY    51  44  77 W8        30.15R
DUBUQUE        CLEAR     50  46  86 W5        30.13R
DECORAH        CLEAR     48  46  93 CALM      30.11R
MASON CITY     CLEAR     49  44  83 W9        30.18R
CHARLES CITY   PTCLDY    50  48  93 W8        30.15R
OELWEIN        CLEAR     50  46  87 W7        30.15R
$$

...ELSEWHERE IN IOWA...


CITY           SKY/WX    TMP DP  RH WIND       PRES   REMARKS
DES MOINES     MOCLDY    51  45  79 W5        30.21R
IOWA CITY      PTCLDY    50  44  80 W5        30.17R
FORT DODGE     MOCLDY    48  41  76 W5        30.22R
MARSHALLTOWN   PTCLDY    49  45  86 W7        30.18R
CEDAR RAPIDS   PTCLDY    48  46  93 NW7       30.15R
$$

...NORTHERN ILLINOIS...


CITY           SKY/WX    TMP DP  RH WIND       PRES   REMARKS
CHICAGO-OHARE  PTCLDY    55  48  77 W8        30.07R
CHICAGO-MIDWAY CLEAR     56  48  74 SW8       30.08R
MOLINE         CLEAR     53  50  89 CALM      30.14R
ROCKFORD       CLEAR     54  50  86 W10       30.11R
PEORIA         CLEAR     53  49  86 CALM      30.15R
$$

NOTE: "FAIR" INDICATES FEW OR NO CLOUDS BELOW 12,000 FEET WITH NO
SIGNIFICANT WEATHER AND/OR OBSTRUCTIONS TO VISIBILITY. WIND
SPEEDS ARE IN MILES-PER-HOUR.




USA.gov is the U.S. government's official web portal to all federal, state and local government web resources and services.